Voltar ao catálogo

YAOGAN-31 A

AtivoMilitarLEO
NORAD 43275·PAYLOAD·🇨🇳 China

Lançado Apr 10, 2018 de Jiuquan Satellite Launch Center

Loading…

Próximas Passagens (próximas 24 horas)

TLE

AtualizadoSource: Space-Track

Época: Sep 14, 2026, 14:57 UTC

1 43275U 18034A   26257.62321628  .00000016  00000-0  14155-3 0  9995
2 43275  63.3925 221.1365 0283092   7.7047 352.8192 13.45466679414134

Acompanhe YAOGAN-31 A em tempo real com AllMySat

Download on the App Store